Voltar ao catálogo

CZ-6A R/B

AtivoPO
NORAD 63922·ROCKET BODY·🇨🇳 China

Lançado May 11, 2025 de Taiyuan Satellite Launch Center

Loading…

Próximas Passagens (próximas 24 horas)

TLE

AtualizadoSource: Space-Track

Época: Sep 14, 2026, 15:23 UTC

1 63922U 25096E   26257.64153562  .00000317  00000-0  53471-4 0  9993
2 63922  86.0179 130.2264 0068319 194.0514 165.8800 14.64228867 71794

Acompanhe CZ-6A R/B em tempo real com AllMySat

Download on the App Store